FW0153 Weather Reports


time (UTC)temp
C
wind
direction
speed
KPH
gust
KPH
rain 1hr
cm
rain 24hr
cm
rain mn
cm
humidity
%
barometer
mb
20260504034505 21 86 14.5 0.0 0.00 0.00 0.00 70 1019.8
20260504034005 21 64 0.0 0.0 0.00 0.00 0.00 70 1019.8
20260504033712 21 75 6.4 0.0 0.00 0.00 0.00 70 1019.8
20260504033005 21 78 0.0 0.0 0.00 0.00 0.00 70 1019.8
20260504032505 21 75 0.0 0.0 0.00 0.00 0.00 69 1019.5
20260504032005 21 76 6.4 0.0 0.00 0.00 0.00 69 1019.8
20260504031505 21 79 0.0 0.0 0.00 0.00 0.00 68 1019.5
20260504031005 21 76 0.0 0.0 0.00 0.00 0.00 68 1019.5
20260504030505 21 69 0.0 0.0 0.00 0.00 0.00 67 1019.5
20260504030213 21 85 6.4 0.0 0.00 0.00 0.00 67 1019.5
20260504025712 21 55 0.0 0.0 0.00 0.00 0.00 66 1019.5
20260504025005 21 77 6.4 0.0 0.00 0.00 0.00 66 1019.1
20260504024505 21 85 14.5 0.0 0.00 0.00 0.00 65 1019.1
20260504024005 21 66 0.0 0.0 0.00 0.00 0.00 65 1019.5
20260504023505 21 66 0.0 0.0 0.00 0.00 0.00 65 1019.5
20260504023005 21 52 6.4 0.0 0.00 0.00 0.00 64 1019.5
20260504022504 21 91 0.0 0.0 0.00 0.00 0.00 64 1019.1
20260504022005 21 28 6.4 0.0 0.00 0.00 0.00 63 1019.1
20260504021714 21 121 20.9 0.0 0.00 0.00 0.00 63 1018.8
20260504021212 21 89 14.5 0.0 0.00 0.00 0.00 62 1019.1
20260504020713 21 52 0.0 0.0 0.00 0.00 0.00 61 1019.1
20260504020213 21 46 6.4 0.0 0.00 0.00 0.00 61 1019.1
20260504015505 21 114 6.4 0.0 0.00 0.00 0.00 60 1018.8
20260504015005 22 81 14.5 0.0 0.00 0.00 0.00 59 1018.8
20260504014505 22 49 14.5 0.0 0.00 0.00 0.00 59 1018.8
20260504014005 22 79 0.0 0.0 0.00 0.00 0.00 58 1018.8
20260504013713 22 47 0.0 0.0 0.00 0.00 0.00 58 1018.4
20260504013005 22 42 14.5 0.0 0.00 0.00 0.00 56 1018.4
20260504012711 22 20 6.4 0.0 0.00 0.00 0.00 56 1018.4
20260504012212 22 35 14.5 0.0 0.00 0.00 0.00 56 1018.4
20260504011505 22 63 6.4 0.0 0.00 0.00 0.00 55 1018.4
20260504011005 22 70 6.4 0.0 0.00 0.00 0.00 54 1018.4
20260504010505 22 19 14.5 0.0 0.00 0.00 0.00 54 1018.4
20260504010005 23 91 29.0 0.0 0.00 0.00 0.00 54 1018.4
20260504005505 23 42 6.4 0.0 0.00 0.00 0.00 53 1018.4
20260504005005 23 65 0.0 0.0 0.00 0.00 0.00 53 1018.8
20260504004505 23 66 20.9 0.0 0.00 0.00 0.00 53 1018.4
20260504004004 23 53 6.4 0.0 0.00 0.00 0.00 52 1018.4
20260504003505 23 14 20.9 0.0 0.00 0.00 0.00 51 1018.4
20260504002505 23 32 20.9 0.0 0.00 0.00 0.00 51 1018.4
20260504002005 23 36 20.9 0.0 0.00 0.00 0.00 50 1018.4
20260504001505 23 66 6.4 0.0 0.00 0.00 0.00 50 1018.4
20260504001005 24 58 29.0 0.0 0.00 0.00 0.00 49 1018.4
20260504000505 24 146 14.5 0.0 0.00 0.00 0.00 49 1018.4
20260504000005 24 102 14.5 0.0 0.00 0.00 0.00 49 1018.1
20260503235505 24 49 14.5 0.0 0.00 0.00 0.00 49 1018.1
20260503235212 25 76 0.0 0.0 0.00 0.00 0.00 49 1018.4
20260503234713 25 64 6.4 0.0 0.00 0.00 0.00 49 1018.1
20260503234005 24 80 6.4 0.0 0.00 0.00 0.00 49 1018.1
20260503233505 25 15 6.4 0.0 0.00 0.00 0.00 48 1018.4
20260503233005 25 17 14.5 0.0 0.00 0.00 0.00 48 1018.4
20260503232505 25 62 14.5 0.0 0.00 0.00 0.00 47 1018.4
20260503232004 25 3 20.9 0.0 0.00 0.00 0.00 47 1018.4
20260503231505 25 63 0.0 0.0 0.00 0.00 0.00 47 1018.4
20260503231005 25 32 6.4 0.0 0.00 0.00 0.00 46 1018.1
20260503230505 25 31 6.4 0.0 0.00 0.00 0.00 45 1018.4
20260503230005 25 72 0.0 0.0 0.00 0.00 0.00 47 1018.1
20260503225505 25 47 6.4 0.0 0.00 0.00 0.00 46 1018.4
20260503225005 25 78 20.9 0.0 0.00 0.00 0.00 46 1018.4
20260503224504 25 120 6.4 0.0 0.00 0.00 0.00 45 1018.4
20260503224005 26 59 14.5 0.0 0.00 0.00 0.00 44 1018.4
20260503223505 25 30 6.4 0.0 0.00 0.00 0.00 46 1018.4
20260503223005 25 35 14.5 0.0 0.00 0.00 0.00 46 1018.8
20260503222505 25 74 14.5 0.0 0.00 0.00 0.00 45 1018.8
20260503222213 26 27 20.9 0.0 0.00 0.00 0.00 44 1018.8
20260503221505 26 81 20.9 0.0 0.00 0.00 0.00 44 1018.8
20260503221005 26 72 20.9 0.0 0.00 0.00 0.00 44 1019.1
20260503220712 26 47 6.4 0.0 0.00 0.00 0.00 44 1018.8
20260503220005 25 88 0.0 0.0 0.00 0.00 0.00 47 1019.1
20260503215505 26 57 20.9 0.0 0.00 0.00 0.00 43 1019.1
20260503215005 26 57 0.0 0.0 0.00 0.00 0.00 44 1019.5
20260503214505 26 358 14.5 0.0 0.00 0.00 0.00 44 1019.5
20260503214004 26 87 20.9 0.0 0.00 0.00 0.00 43 1019.5
20260503213505 26 60 20.9 0.0 0.00 0.00 0.00 42 1019.5
20260503213005 26 79 14.5 0.0 0.00 0.00 0.00 43 1019.5
20260503212505 26 7 6.4 0.0 0.00 0.00 0.00 42 1019.5
20260503212005 26 7 20.9 0.0 0.00 0.00 0.00 41 1019.5
20260503211505 26 76 20.9 0.0 0.00 0.00 0.00 42 1019.5
20260503211005 26 42 14.5 0.0 0.00 0.00 0.00 43 1019.5
20260503210505 26 112 6.4 0.0 0.00 0.00 0.00 42 1019.5
20260503210005 26 81 20.9 0.0 0.00 0.00 0.00 42 1019.8
20260503205714 27 359 14.5 0.0 0.00 0.00 0.00 42 1019.5
20260503205005 26 114 0.0 0.0 0.00 0.00 0.00 42 1019.5
20260503204713 26 58 6.4 0.0 0.00 0.00 0.00 44 1019.8
20260503204212 26 72 20.9 0.0 0.00 0.00 0.00 42 1019.8
20260503203505 26 126 6.4 0.0 0.00 0.00 0.00 43 1020.1
20260503203005 26 21 14.5 0.0 0.00 0.00 0.00 42 1020.1
20260503202711 26 37 14.5 0.0 0.00 0.00 0.00 41 1020.5
20260503202005 26 61 14.5 0.0 0.00 0.00 0.00 39 1020.5
20260503201505 26 18 20.9 0.0 0.00 0.00 0.00 42 1020.5
20260503201005 26 60 20.9 0.0 0.00 0.00 0.00 41 1020.5
20260503200711 27 92 6.4 0.0 0.00 0.00 0.00 38 1020.5
20260503200005 27 37 6.4 0.0 0.00 0.00 0.00 39 1020.8
20260503195505 26 139 6.4 0.0 0.00 0.00 0.00 39 1020.8
20260503195005 25 108 6.4 0.0 0.00 0.00 0.00 44 1021.2
20260503194505 25 70 0.0 0.0 0.00 0.00 0.00 43 1021.2
20260503194212 25 96 0.0 0.0 0.00 0.00 0.00 45 1020.8
20260503193505 25 57 6.4 0.0 0.00 0.00 0.00 44 1021.2
20260503193005 25 100 14.5 0.0 0.00 0.00 0.00 43 1021.2
20260503192505 26 181 6.4 0.0 0.00 0.00 0.00 41 1021.2
20260503192005 25 40 6.4 0.0 0.00 0.00 0.00 43 1021.5
20260503191713 25 81 0.0 0.0 0.00 0.00 0.00 44 1021.5
20260503191005 25 33 20.9 0.0 0.00 0.00 0.00 44 1021.5
20260503190505 25 115 6.4 0.0 0.00 0.00 0.00 41 1021.5
20260503190212 25 41 14.5 0.0 0.00 0.00 0.00 43 1021.8
20260503185505 25 353 14.5 0.0 0.00 0.00 0.00 44 1021.8
20260503185005 25 22 6.4 0.0 0.00 0.00 0.00 45 1022.2
20260503184504 25 29 6.4 0.0 0.00 0.00 0.00 45 1022.2
20260503184005 26 15 20.9 0.0 0.00 0.00 0.00 42 1022.2
20260503183713 26 23 6.4 0.0 0.00 0.00 0.00 43 1022.2
20260503183005 25 94 6.4 0.0 0.00 0.00 0.00 45 1022.2
20260503182506 25 121 14.5 0.0 0.00 0.00 0.00 44 1022.2
20260503182006 25 318 14.5 0.0 0.00 0.00 0.00 45 1022.5
20260503181505 25 123 0.0 0.0 0.00 0.00 0.00 42 1022.2
20260503181005 25 121 6.4 0.0 0.00 0.00 0.00 45 1022.5
20260503180505 26 70 51.5 0.0 0.00 0.00 0.00 42 1022.9
20260503180005 26 349 14.5 0.0 0.00 0.00 0.00 44 1022.5
20260503175505 25 299 29.0 0.0 0.00 0.00 0.00 42 1022.9
20260503175005 25 51 6.4 0.0 0.00 0.00 0.00 43 1022.9
20260503174712 25 34 20.9 0.0 0.00 0.00 0.00 45 1023.2
20260503174005 25 25 14.5 0.0 0.00 0.00 0.00 45 1023.2
20260503173505 25 80 6.4 0.0 0.00 0.00 0.00 43 1023.2
20260503173005 25 358 6.4 0.0 0.00 0.00 0.00 42 1023.2
20260503172712 25 42 20.9 0.0 0.00 0.00 0.00 43 1023.2
20260503172005 25 75 20.9 0.0 0.00 0.00 0.00 44 1023.2
20260503171505 25 53 14.5 0.0 0.00 0.00 0.00 46 1023.5
20260503171005 25 76 14.5 0.0 0.00 0.00 0.00 47 1023.5
20260503170505 25 3 14.5 0.0 0.00 0.00 0.00 47 1023.5
20260503151005 23 57 0.0 0.0 0.00 0.00 0.00 54 1023.9
20260503150713 23 299 6.4 0.0 0.00 0.00 0.00 53 1023.9
20260503140212 21 266 0.0 0.0 0.00 0.00 0.00 61 1023.2
20260503131005 18 228 0.0 0.0 0.00 0.00 0.00 74 1022.9
20260503130505 18 224 6.4 0.0 0.00 0.00 0.00 77 1022.9
20260503120211 16 236 0.0 0.0 0.00 0.00 0.00 89 1022.2
20260503110505 16 101 0.0 0.0 0.00 0.00 0.00 90 1022.2
20260503110213 16 101 0.0 0.0 0.00 0.00 0.00 90 1021.8
20260503100212 16 100 0.0 0.0 0.00 0.00 0.00 87 1022.2
20260503090505 16 99 0.0 0.0 0.00 0.00 0.00 86 1021.8
20260503081212 17 99 0.0 0.0 0.00 0.00 0.00 85 1022.5
20260503080505 17 86 0.0 0.0 0.00 0.00 0.00 86 1022.5
20260503072505 16 86 0.0 0.0 0.00 0.00 0.00 86 1022.5
20260503072005 16 85 0.0 0.0 0.00 0.00 0.00 86 1022.2
20260503071505 16 85 0.0 0.0 0.00 0.00 0.00 85 1022.5
20260503071211 16 85 0.0 0.0 0.00 0.00 0.00 84 1022.5
20260503070505 16 86 0.0 0.0 0.00 0.00 0.00 83 1022.9
20260503055004 18 85 0.0 0.0 0.00 0.00 0.00 79 1023.5
20260503054505 18 85 0.0 0.0 0.00 0.00 0.00 79 1023.2
20260503054005 18 85 0.0 0.0 0.00 0.00 0.00 78 1023.2
20260503053505 18 85 0.0 0.0 0.00 0.00 0.00 78 1023.5
20260503053213 18 85 0.0 0.0 0.00 0.00 0.00 77 1023.5
20260503052505 18 85 0.0 0.0 0.00 0.00 0.00 77 1023.2
20260503052005 18 85 0.0 0.0 0.00 0.00 0.00 76 1023.2
20260503051505 18 85 0.0 0.0 0.00 0.00 0.00 76 1023.2
20260503051005 18 85 0.0 0.0 0.00 0.00 0.00 76 1023.2
20260503050505 18 85 0.0 0.0 0.00 0.00 0.00 76 1023.2
20260503045505 18 85 0.0 0.0 0.00 0.00 0.00 75 1023.5
20260503045005 18 85 0.0 0.0 0.00 0.00 0.00 75 1023.2
20260503044505 18 85 0.0 0.0 0.00 0.00 0.00 75 1023.2
20260503044005 18 85 0.0 0.0 0.00 0.00 0.00 75 1023.2
20260503043505 18 85 0.0 0.0 0.00 0.00 0.00 75 1023.2
20260503043005 18 85 0.0 0.0 0.00 0.00 0.00 74 1022.9
20260503042713 18 85 0.0 0.0 0.00 0.00 0.00 75 1022.9
20260503042212 18 84 0.0 0.0 0.00 0.00 0.00 75 1022.9
20260503041504 18 84 0.0 0.0 0.00 0.00 0.00 75 1022.9
20260503041005 18 84 0.0 0.0 0.00 0.00 0.00 76 1022.9
20260503040505 18 84 0.0 0.0 0.00 0.00 0.00 76 1022.9
20260503040005 18 84 0.0 0.0 0.00 0.00 0.00 75 1022.9
20260503035505 18 84 0.0 0.0 0.00 0.00 0.00 76 1022.9
20260503035212 18 84 0.0 0.0 0.00 0.00 0.00 75 1022.9